Home   Weather   Modesto   Past weeks

Flag for USA Past Weather in Modesto, California, USA — Yesterday and Last 2 Weeks

Now
60 °F

Haze.


Feels Like: 60 °F
Forecast: 54 / 64 °F
Wind: 7 mph from South

Location: Modesto City-County-Sham Field

Current Time: Dec 9, 2016 at 11:27:34 am

Latest Report: Dec 9, 2016 at 10:53 am


Visibility: 6 mi

Pressure: 30.27 "Hg

Humidity: 80%

Dew Point: 54 °F

Location of ModestoLocation

Past Weather in Modesto — Graph

°F

Modesto Temperature Yesterday

Maximum temperature yesterday: 57 °F (at 12:53 pm)
Minimum temperature yesterday: 47 °F (at 2:53 am)
Average temperature yesterday: 52 °F

High & Low Weather Summary for the Past Weeks

 TemperatureHumidityPressure
High62 °F (Dec 2, 1:53 pm)93% (Dec 9, 7:53 am)30.35 "Hg (Dec 9, 7:53 am)
Low37 °F (Dec 3, 3:53 am)25% (Dec 2, 1:53 pm)29.85 "Hg (Nov 26, 6:53 am)
Average49 °F73%30.10 "Hg
* Reported Nov 24 9:53 am — Dec 9 9:53 am, Modesto, Weather by CustomWeather, © 2016

Note: Actual official high and low records may vary slightly from our data, if they occured in-between our weather recording intervals... More about our weather records

Advertising

Modesto Weather History for the Previous 24 Hours

Scroll right to see more
 ConditionsComfort  
Time TempWeatherWind HumidityBarometerVisibility
9:53 am
Fri, Dec 9
59 °FHaze.7 mph81%30.27 "Hg5 mi
8:53 am56 °FFog.No wind87%30.26 "Hg3 mi
7:53 am54 °FFog.5 mph93%30.23 "Hg3 mi
6:53 am54 °FFog.No wind90%30.22 "Hg3 mi
5:53 am55 °FFog.3 mph90%30.22 "Hg4 mi
4:53 am56 °FFog.5 mph87%30.20 "Hg6 mi
3:53 am55 °FFog.6 mph87%30.21 "Hg5 mi
2:53 am55 °FFog.6 mph87%30.22 "Hg5 mi
1:53 am55 °FOvercast.6 mph87%30.22 "Hg7 mi
12:53 am55 °FFog.No wind87%30.22 "Hg6 mi
11:53 pm
Thu, Dec 8
54 °FFog.3 mph90%30.21 "Hg6 mi
10:53 pm53 °FFog.No wind89%30.21 "Hg4 mi
9:53 pm54 °FFog.3 mph86%30.20 "Hg4 mi
8:53 pm55 °FPassing clouds.3 mph87%30.21 "Hg7 mi
7:53 pm55 °FOvercast.5 mph87%30.20 "Hg7 mi
6:53 pm55 °FPartly cloudy.7 mph87%30.19 "Hg7 mi
5:53 pm56 °FPassing clouds.6 mph84%30.19 "Hg8 mi
4:53 pm56 °FOvercast.8 mph84%30.19 "Hg10 mi
3:53 pm56 °FMostly cloudy.10 mph84%30.18 "Hg8 mi
2:53 pm57 °FCloudy.12 mph74%30.18 "Hg9 mi
1:53 pm57 °FCloudy.16 mph72%30.17 "Hg9 mi
12:53 pm57 °FCloudy.15 mph69%30.18 "Hg10 mi
11:53 am55 °FBroken clouds.12 mph74%30.19 "Hg9 mi
Weather by CustomWeather, © 2016

See weather overviewHow to use our weather pages